When you browse on this site, cookies collect data to enhance your experience and personalize the content and advertising you see.
Visit our Privacy Policy to learn more. By continuing to use the site, you agree to this use of cookies and data.
  • In Hungary
  • List of Countries
  • For 7 days
  • Water Temperature
  • Satellite Maps
  • Weather Map
  • News
  • Weather Widgets
  • user-avatar
    Login

    Hourly Weather Punta Cana

    Today, 21 January, Monday

    Time Temperature Precipitation Wind Pressure Humidity
    00:00 +24°C° 0.1 mm 2 mps 764 mmHg 87%
    01:00 +24°C° 0.1 mm 2 mps 764 mmHg 87%
    02:00 +24°C° 0 mm 2 mps 764 mmHg 87%
    03:00 +24°C° 0 mm 2 mps 764 mmHg 87%
    04:00 +24°C° 0 mm 2 mps 764 mmHg 86%
    05:00 +24°C° 0 mm 2 mps 764 mmHg 85%
    06:00 +25°C° 0 mm 2 mps 764 mmHg 84%
    07:00 +25°C° 0 mm 2 mps 765 mmHg 83%
    08:00 +27°C° 0 mm 3 mps 765 mmHg 75%
    09:00 +28°C° 0 mm 3 mps 765 mmHg 67%
    10:00 +30°C° 0 mm 3 mps 766 mmHg 59%
    11:00 +30°C° 0 mm 3 mps 765 mmHg 57%
    12:00 +31°C° 0 mm 3 mps 765 mmHg 55%
    13:00 +31°C° 0 mm 3 mps 764 mmHg 53%
    14:00 +30°C° 0 mm 3 mps 764 mmHg 56%
    15:00 +30°C° 0 mm 3 mps 764 mmHg 58%
    16:00 +29°C° 0 mm 3 mps 764 mmHg 61%
    17:00 +28°C° 0 mm 3 mps 764 mmHg 69%
    18:00 +26°C° 0 mm 4 mps 764 mmHg 77%
    19:00 +25°C° 0 mm 4 mps 764 mmHg 86%
    20:00 +25°C° 0 mm 5 mps 765 mmHg 86%
    21:00 +26°C° 0 mm 5 mps 765 mmHg 86%
    22:00 +26°C° 0 mm 6 mps 765 mmHg 86%
    23:00 +26°C° 0 mm 6 mps 765 mmHg 86%

    Tomorrow, 22 January, Tuesday

    Time Temperature Precipitation Wind Pressure Humidity
    00:00 +26°C° 0 mm 6 mps 765 mmHg 86%
    01:00 +26°C° 0 mm 6 mps 765 mmHg 86%
    02:00 +26°C° 0 mm 6 mps 764 mmHg 86%
    03:00 +26°C° 0 mm 6 mps 764 mmHg 87%
    04:00 +26°C° 0 mm 6 mps 764 mmHg 87%
    05:00 +26°C° 0 mm 7 mps 765 mmHg 85%
    06:00 +26°C° 0 mm 7 mps 765 mmHg 84%
    07:00 +26°C° 0 mm 7 mps 766 mmHg 82%
    08:00 +27°C° 0 mm 8 mps 766 mmHg 76%
    09:00 +29°C° 0 mm 8 mps 767 mmHg 70%
    10:00 +31°C° 0 mm 8 mps 767 mmHg 63%
    11:00 +31°C° 0 mm 8 mps 766 mmHg 62%
    12:00 +31°C° 0 mm 8 mps 766 mmHg 61%
    13:00 +31°C° 0 mm 8 mps 766 mmHg 60%
    14:00 +31°C° 0 mm 8 mps 765 mmHg 63%
    15:00 +29°C° 0 mm 8 mps 765 mmHg 66%
    16:00 +28°C° 0 mm 9 mps 765 mmHg 68%
    17:00 +27°C° 0 mm 9 mps 765 mmHg 72%
    18:00 +27°C° 0 mm 9 mps 766 mmHg 76%
    19:00 +26°C° 0 mm 9 mps 766 mmHg 79%
    20:00 +26°C° 0.1 mm 9 mps 766 mmHg 80%
    21:00 +26°C° 0.1 mm 9 mps 767 mmHg 80%
    22:00 +26°C° 0.1 mm 9 mps 767 mmHg 80%
    23:00 +26°C° 0.2 mm 9 mps 766 mmHg 81%

    Day after tomorrow, 23 January, Wednesday

    Time Temperature Precipitation Wind Pressure Humidity
    00:00 +24°C° 0.2 mm 8 mps 766 mmHg 83%
    01:00 +24°C° 0.2 mm 8 mps 766 mmHg 84%
    02:00 +24°C° 0.3 mm 8 mps 765 mmHg 84%
    03:00 +24°C° 0.3 mm 8 mps 765 mmHg 85%
    04:00 +24°C° 0.3 mm 8 mps 765 mmHg 86%
    05:00 +24°C° 0.2 mm 8 mps 765 mmHg 85%
    06:00 +24°C° 0.2 mm 8 mps 766 mmHg 83%
    07:00 +26°C° 0.2 mm 8 mps 766 mmHg 82%
    08:00 +27°C° 0 mm 8 mps 766 mmHg 75%
    09:00 +29°C° 0 mm 8 mps 767 mmHg 68%
    10:00 +31°C° 0 mm 8 mps 767 mmHg 61%
    11:00 +31°C° 0 mm 8 mps 766 mmHg 59%
    12:00 +30°C° 0 mm 7 mps 766 mmHg 58%
    13:00 +32°C° 0 mm 7 mps 765 mmHg 57%
    14:00 +30°C° 0.2 mm 7 mps 765 mmHg 62%
    15:00 +29°C° 0.2 mm 7 mps 765 mmHg 66%
    16:00 +28°C° 0.2 mm 7 mps 764 mmHg 71%
    17:00 +27°C° 0.4 mm 8 mps 765 mmHg 76%
    18:00 +26°C° 0.4 mm 8 mps 765 mmHg 80%
    19:00 +24°C° 0.4 mm 9 mps 765 mmHg 85%
    20:00 +26°C° 0.2 mm 9 mps 765 mmHg 84%
    21:00 +26°C° 0.2 mm 9 mps 765 mmHg 83%
    22:00 +26°C° 0.2 mm 9 mps 765 mmHg 82%
    23:00 +26°C° 0 mm 9 mps 765 mmHg 82%

    24 January, Thursday

    Time Temperature Precipitation Wind Pressure Humidity
    00:00 +26°C° 0 mm 8 mps 765 mmHg 81%
    01:00 +26°C° 0 mm 8 mps 764 mmHg 81%
    02:00 +26°C° 0 mm 8 mps 764 mmHg 81%
    03:00 +26°C° 0 mm 7 mps 764 mmHg 80%
    04:00 +24°C° 0 mm 7 mps 763 mmHg 80%
    05:00 +26°C° 0 mm 7 mps 764 mmHg 79%
    06:00 +26°C° 0 mm 7 mps 764 mmHg 78%
    07:00 +26°C° 0 mm 7 mps 765 mmHg 78%
    08:00 +27°C° 0 mm 6 mps 765 mmHg 71%
    09:00 +29°C° 0 mm 6 mps 765 mmHg 64%
    10:00 +30°C° 0 mm 6 mps 766 mmHg 56%
    11:00 +30°C° 0 mm 5 mps 765 mmHg 56%
    12:00 +32°C° 0 mm 5 mps 765 mmHg 55%
    13:00 +32°C° 0 mm 4 mps 764 mmHg 55%
    14:00 +30°C° 0 mm 4 mps 764 mmHg 57%
    15:00 +30°C° 0 mm 4 mps 763 mmHg 59%
    16:00 +29°C° 0 mm 4 mps 763 mmHg 61%
    17:00 +28°C° 0 mm 4 mps 763 mmHg 67%
    18:00 +27°C° 0 mm 3 mps 764 mmHg 73%
    19:00 +26°C° 0 mm 3 mps 764 mmHg 79%
    20:00 +25°C° 0 mm 3 mps 764 mmHg 81%
    21:00 +25°C° 0 mm 3 mps 765 mmHg 82%
    22:00 +25°C° 0 mm 3 mps 765 mmHg 83%
    23:00 +25°C° 0 mm 4 mps 764 mmHg 84%

    25 January, Friday

    Time Temperature Precipitation Wind Pressure Humidity
    00:00 +25°C° 0 mm 4 mps 764 mmHg 84%
    01:00 +25°C° 0 mm 5 mps 764 mmHg 84%
    02:00 +25°C° 0 mm 5 mps 764 mmHg 84%
    03:00 +25°C° 0 mm 4 mps 763 mmHg 84%
    04:00 +25°C° 0 mm 4 mps 763 mmHg 84%
    05:00 +25°C° 0 mm 4 mps 764 mmHg 83%
    06:00 +25°C° 0 mm 4 mps 764 mmHg 81%
    07:00 +25°C° 0 mm 4 mps 765 mmHg 79%
    08:00 +27°C° 0 mm 4 mps 765 mmHg 72%
    09:00 +29°C° 0 mm 4 mps 765 mmHg 66%
    10:00 +30°C° 0 mm 4 mps 765 mmHg 59%
    11:00 +30°C° 0 mm 4 mps 764 mmHg 58%
    12:00 +32°C° 0 mm 4 mps 764 mmHg 56%
    13:00 +32°C° 0 mm 4 mps 763 mmHg 55%
    14:00 +30°C° 0 mm 4 mps 763 mmHg 58%
    15:00 +30°C° 0 mm 4 mps 762 mmHg 61%
    16:00 +29°C° 0 mm 4 mps 762 mmHg 64%
    17:00 +28°C° 0 mm 4 mps 762 mmHg 68%
    18:00 +27°C° 0 mm 4 mps 763 mmHg 73%
    19:00 +26°C° 0 mm 4 mps 763 mmHg 78%
    20:00 +26°C° 0 mm 4 mps 763 mmHg 78%
    21:00 +26°C° 0 mm 4 mps 764 mmHg 78%
    22:00 +26°C° 0 mm 4 mps 764 mmHg 79%
    23:00 +26°C° 0 mm 3 mps 764 mmHg 79%

    26 January, Saturday

    Time Temperature Precipitation Wind Pressure Humidity
    00:00 +25°C° 0 mm 3 mps 763 mmHg 80%
    01:00 +25°C° 0 mm 3 mps 763 mmHg 81%
    02:00 +25°C° 0 mm 2 mps 763 mmHg 82%
    03:00 +24°C° 0 mm 2 mps 763 mmHg 83%
    04:00 +24°C° 0 mm 2 mps 763 mmHg 84%
    05:00 +24°C° 0 mm 2 mps 763 mmHg 82%
    06:00 +25°C° 0 mm 2 mps 763 mmHg 81%
    07:00 +25°C° 0 mm 1 mps 764 mmHg 80%
    08:00 +27°C° 0 mm 2 mps 764 mmHg 71%
    09:00 +29°C° 0 mm 2 mps 764 mmHg 63%
    10:00 +30°C° 0 mm 2 mps 764 mmHg 55%
    11:00 +31°C° 0 mm 2 mps 764 mmHg 54%
    12:00 +31°C° 0 mm 3 mps 763 mmHg 52%
    13:00 +31°C° 0 mm 3 mps 762 mmHg 51%
    14:00 +31°C° 0 mm 3 mps 762 mmHg 53%
    15:00 +30°C° 0 mm 3 mps 762 mmHg 55%
    16:00 +30°C° 0 mm 3 mps 761 mmHg 57%
    17:00 +28°C° 0 mm 3 mps 762 mmHg 64%
    18:00 +26°C° 0 mm 3 mps 762 mmHg 70%
    19:00 +25°C° 0 mm 3 mps 762 mmHg 76%
    20:00 +25°C° 0 mm 3 mps 763 mmHg 78%
    21:00 +24°C° 0 mm 3 mps 763 mmHg 80%
    22:00 +24°C° 0 mm 3 mps 763 mmHg 83%
    23:00 +24°C° 0 mm 3 mps 762 mmHg 85%
    Show more